Location: Unspecified
(0.0000°N, 0.0000°E)
Time: 10:14:52
(UTC+00:00)

Transit 2A Rocket - Visible Passes

Search period start: 13 May 2021 00:00
Search period end: 23 May 2021 00:00
Orbit: 594 x 909 km, 66.7° (Epoch: 12 May)

Date Brightness Start Highest point End Pass type
(mag) Time Alt. Az. Time Alt. Az. Time Alt. Az.
13 May 6.9 18:42:53 10° NE 18:45:21 13° ENE 18:46:24 12° E visible
13 May 6.4 20:22:26 10° NW 20:26:21 38° WNW 20:26:21 38° WNW visible
14 May 5.0 19:39:35 10° NNW 19:44:58 89° WSW 19:45:56 63° SSE visible
15 May 5.5 18:57:21 10° N 19:02:26 44° ENE 19:05:34 23° SE visible
15 May 7.7 20:42:13 10° W 20:44:57 14° WSW 20:45:33 13° WSW visible
16 May 6.4 18:15:53 10° NNE 18:19:56 22° ENE 18:24:13 10° ESE visible
16 May 6.9 19:57:37 10° NW 20:02:15 28° WSW 20:05:15 18° SSW visible
17 May 5.7 19:14:18 10° NNW 19:19:37 57° WSW 19:24:58 12° S visible
18 May 5.2 18:31:40 10° NNW 18:37:03 71° ENE 18:42:54 10° SSE visible
19 May 7.9 05:25:10 10° ESE 05:25:41 10° ESE 05:26:11 10° ESE visible
19 May 7.6 19:33:16 10° WNW 19:36:58 18° WSW 19:40:50 10° SSW visible
20 May 6.7 18:49:17 10° NW 18:54:18 36° WSW 18:59:40 10° S visible
22 May 7.4 04:57:10 10° SSE 05:00:23 17° ESE 05:03:25 10° ENE visible
22 May 8.1 19:10:13 10° W 19:11:42 11° WSW 19:13:13 10° SW visible
